Location: Heydon
(52.0500°N, 0.0833°E)
Time: 21:49:05
(UTC+00:00)

Daily predictions for brighter satellites

Satellite Brightness Start Highest point End
(mag) Time Altitude Azimuth Time Altitude Azimuth Time Altitude Azimuth
Cosmos 2173 Rocket 4.1 17:45:02 10° S 17:51:18 63° E 17:57:37 10° NNE
Cosmos 1633 2.9 17:52:57 10° SSE 17:56:20 41° E 17:59:46 10° NNE
Meteor 2-3 Rocket 3.8 17:51:19 10° SSW 17:56:56 88° WNW 18:02:39 10° NNE
CSL-04 Rocket 3.9 17:52:28 10° SE 17:57:50 54° ENE 18:03:10 10° N
Cosmos 1238 Rocket 4.2 17:52:46 10° SSE 17:58:54 55° E 18:05:23 10° NNE
Cosmos 2297 Rocket 4.2 17:57:11 10° N 17:59:28 12° NNE 18:01:44 10° NE
ARGOS 4.4 17:57:51 10° E 18:01:48 21° NE 18:05:44 10° N
Okean-O 3.0 17:57:58 10° S 18:02:23 72° WSW 18:06:51 10° NNW
CZ-4B R/B 4.4 18:00:49 10° NNW 18:02:40 14° WNW 18:04:31 10° W
STARLINK-48 3.8 17:59:16 10° SW 18:03:03 51° SSE 18:06:51 10° ENE
STARLINK-60 3.1 18:02:38 10° WNW 18:05:56 82° SSW 18:09:14 10° ESE
Cosmos 2278 Rocket 2.8 18:01:13 10° SW 18:06:48 59° NW 18:12:25 10° NNE
Cosmos 1607 4.1 18:00:46 10° NW 18:07:04 85° SW 18:13:26 10° SE
Cosmos 2228 Rocket 4.1 18:03:49 10° NNW 18:08:15 54° W 18:12:41 10° S
NOSS 3-1 (C) 4.2 18:03:38 10° S 18:08:19 28° ESE 18:13:32 10° ENE
deb Kosmos-1763 4.0 18:05:42 10° NNW 18:09:24 88° ENE 18:13:04 10° SSE
Cosmos 2100 Rocket 4.1 18:03:04 10° S 18:09:26 86° E 18:15:47 10° N
CSL-04 Debris 4.2 18:05:17 10° SSE 18:10:41 67° ENE 18:16:09 10° NNW
Envisat 4.2 18:06:10 10° S 18:11:04 49° W 18:16:02 10° NNW
NOAA 11 4.2 18:06:07 10° SSE 18:11:32 72° ENE 18:16:57 10° NNW
Cosmos 1777 Rocket 4.2 18:07:20 10° NNW 18:12:33 54° ENE 18:17:43 10° SE
COSMOS 2487 4.4 18:14:10 10° NNE 18:15:46 13° NE 18:16:45 12° ENE
Cosmos 2227 Rocket 4.2 18:15:06 10° N 18:17:36 13° NNE 18:20:07 10° NE
Cosmos 1459 Rocket 4.0 18:12:29 10° S 18:18:33 89° WNW 18:24:40 10° N
Sich 1 3.1 18:14:29 10° S 18:18:39 53° E 18:22:50 10° NNE
COSMO-SKYMED 1 2.5 18:14:51 10° NNE 18:19:15 78° ESE 18:23:35 10° S
Cosmos 1805 Rocket 3.5 18:15:44 10° S 18:20:06 74° E 18:24:29 10° NNE
Cosmos 1992 Rocket 4.0 18:16:04 10° SSW 18:21:18 83° ESE 18:26:36 10° NNE
Cosmos 1862 Rocket 4.0 18:18:35 10° N 18:22:39 38° ENE 18:26:43 10° SE
Cosmos 44 3.3 18:19:03 10° NW 18:23:18 49° NE 18:27:30 11° ESE
Cosmos 1707 Rocket 3.5 18:21:20 10° N 18:25:48 82° E 18:30:15 10° SSE
YAOGAN 6 4.5 18:23:21 10° SSW 18:26:35 34° W 18:29:49 10° NNW
FREGAT/IRIS 4.1 18:27:20 16° ENE 18:27:20 16° ENE 18:29:04 10° NNE
Cosmos 2061 Rocket 4.0 18:22:12 10° S 18:28:37 81° E 18:35:02 10° NNE
Cosmos 1782 4.4 18:25:01 10° NNW 18:28:48 41° W 18:32:33 10° SSW
Cosmos 1943 Rocket 2.7 18:26:29 10° S 18:31:31 36° ESE 18:36:33 10° NE
Cosmos 1725 Rocket 3.9 18:26:33 10° S 18:32:40 70° E 18:38:50 10° NNE
Meteor 1-10 Rocket 4.4 18:27:05 10° NNW 18:32:46 80° W 18:38:19 10° S
HJ-1C 3.6 18:31:17 10° SE 18:34:27 45° ENE 18:37:39 10° N
SJ-6B 4.0 18:34:18 18° E 18:35:37 22° ENE 18:38:33 10° NNE
SL-4 R/B 4.2 18:32:51 10° W 18:36:55 28° SW 18:40:48 10° SSE
SL-27 R/B 2.2 18:34:53 10° NNW 18:38:17 79° ENE 18:41:36 10° SSE
BREEZE-M DEB (TANK) 3.6 18:38:33 10° W 18:41:00 45° S 18:45:03 14° ESE
ADEOS Rocket 3.6 18:33:23 10° NNE 18:41:00 59° E 18:48:38 10° S
Cosmos 2285 Rocket 4.1 18:35:45 10° NNW 18:42:03 58° ENE 18:48:20 10° SE
Cosmos 1862 3.2 18:38:45 10° S 18:42:44 82° E 18:46:44 10° NNE
STARLINK-71 4.4 18:39:28 10° SSW 18:43:06 33° SE 18:44:55 22° E
STARLINK-79 4.5 18:40:59 10° SSW 18:44:34 32° SE 18:46:16 22° ESE
Tsikada Rocket 4.1 18:38:40 10° N 18:45:04 86° W 18:51:29 10° S
Cosmos 1340 3.5 18:41:57 10° SSE 18:45:11 27° E 18:48:26 10° NNE
STARLINK-78 4.4 18:42:37 10° SSW 18:46:14 33° SE 18:47:53 23° ESE
BREEZE-M DEB (TANK) 2.9 18:44:00 10° WSW 18:46:30 52° S 18:47:39 27° ESE
Cosmos 1802 Rocket 4.4 18:40:28 10° SSW 18:46:44 71° WNW 18:53:09 10° N
STARLINK-64 3.9 18:44:01 10° SW 18:47:23 39° SSE 18:48:49 26° E
STARLINK-57 4.4 18:44:17 10° SSW 18:47:56 34° SSE 18:49:34 24° ESE
STARLINK-49 4.4 18:45:51 10° SSW 18:49:30 34° SE 18:51:02 25° ESE
H-2A R/B 2.4 18:44:53 10° SE 18:49:59 47° ENE 18:55:12 10° N
CRYOSAT 2 4.3 18:45:34 10° SSE 18:50:25 68° E 18:55:19 10° N
USA 234 3.5 18:45:38 18° E 18:50:36 61° N 18:57:02 10° WNW
STARLINK-27 4.3 18:47:30 10° SSW 18:51:10 35° SSE 18:52:39 26° ESE
Cosmos 1864 Rocket 4.5 18:45:08 10° S 18:51:20 88° WNW 18:57:30 10° N
STARLINK-80 3.4 18:48:27 10° W 18:52:17 86° NNW 18:54:14 28° ENE
STARLINK-74 4.3 18:49:06 10° SSW 18:52:47 35° SSE 18:54:12 27° ESE
Cosmos 2297 3.9 18:47:16 10° SW 18:52:56 77° WNW 18:58:37 10° NNE
Okean 1-7 3.9 18:49:36 10° N 18:53:19 27° ENE 18:54:07 25° E
STARLINK-43 3.3 18:50:03 10° W 18:53:46 75° N 18:55:29 30° ENE
Lacrosse 4 Rocket 1.6 18:49:33 10° SW 18:53:46 73° NW 18:58:09 10° NNE
STARLINK-39 4.3 18:50:45 10° SW 18:54:27 36° SSE 18:55:49 27° ESE
Ariane Rocket 2.9 18:49:24 10° SSE 18:54:28 70° ENE 18:59:34 10° NNW
Cosmos 724 4.2 18:50:10 10° NW 18:56:00 79° NE 19:00:59 15° SE
STARLINK-31 4.2 18:52:23 10° SW 18:56:06 37° SSE 18:57:25 28° ESE
Cosmos 921 Rocket 3.1 18:51:48 10° S 18:56:13 57° ESE 19:00:41 10° NNE
USA 229 DEB 3.7 18:50:19 10° SSW 18:56:44 58° SE 19:03:05 12° NE
USA 229 3.7 18:50:26 10° SSW 18:56:50 57° SE 19:03:08 12° NE
Cosmos 1812 3.0 18:52:59 10° NNW 18:56:51 70° W 19:00:42 10° S
CZ-2D R/B 4.2 18:53:16 10° S 18:57:03 51° W 19:00:53 10° NNW
STARLINK-69 4.1 18:54:07 10° SW 18:57:53 40° SSE 18:59:13 30° ESE
SJ 16-02 2.4 18:54:26 10° N 18:58:08 25° NE 18:58:44 24° ENE
STARLINK-21 4.2 18:55:39 10° SW 18:59:24 39° SSE 19:00:37 30° ESE
DMSP B5D1-3 4.4 18:55:29 10° NNE 19:00:40 79° ESE 19:05:49 10° SSW
CZ-2C R/B 3.5 18:55:14 10° SE 19:00:49 50° ENE 19:06:20 10° N
STARLINK-45 4.1 18:57:25 10° SW 19:01:14 42° SSE 19:02:27 32° ESE
STARLINK-70 4.1 18:59:00 10° SW 19:02:48 42° SSE 19:03:56 33° ESE
Cosmos 1346 Rocket 3.3 18:59:27 10° SSE 19:03:06 35° E 19:06:46 10° NNE
NOSS 3-1 (A) 3.7 18:58:47 10° S 19:03:58 41° ESE 19:07:45 20° ENE
STARLINK-76 4.1 19:00:33 10° SW 19:04:20 41° SSE 19:05:23 34° ESE
YAOGAN 1 4.1 19:00:17 10° SSW 19:04:20 39° W 19:08:26 10° NNW
Cosmos 1833 4.2 18:59:17 10° NNW 19:05:03 67° NE 19:09:23 18° SE
Cosmos 2369 Rocket 2.3 19:00:19 10° S 19:05:45 51° ESE 19:11:15 10° NE
STARLINK-23 4.0 19:02:10 10° SW 19:05:59 42° SSE 19:06:58 35° ESE
STARLINK-33 3.1 19:03:20 10° SW 19:06:34 56° SSE 19:07:07 47° ESE
STARLINK-32 4.0 19:03:50 10° SW 19:07:39 43° SSE 19:08:35 36° ESE
MOS 1 4.2 19:02:07 10° SSE 19:07:43 69° ENE 19:13:21 10° NNW
STARLINK-66 3.1 19:05:09 10° WSW 19:08:23 58° SSE 19:08:53 50° ESE
STARLINK-40 4.0 19:05:27 10° SW 19:09:17 44° SSE 19:10:09 37° ESE
STARLINK-55 3.1 19:06:11 10° WSW 19:09:25 60° SSE 19:09:53 52° ESE
FALCON 9 DEB 3.5 19:07:00 10° WNW 19:10:24 58° SSW 19:11:26 38° SE
STARLINK-44 4.0 19:07:05 10° SW 19:10:55 45° SSE 19:11:45 39° ESE
Cosmos 1656 Rocket 4.4 19:06:20 10° SSE 19:10:50 29° ESE 19:10:50 29° ESE
STARLINK-28 3.0 19:07:52 10° WSW 19:11:06 63° SSE 19:11:32 55° ESE
Cosmos 990 Rocket 4.5 19:07:47 10° NNW 19:12:38 39° NE 19:14:01 33° E
STARLINK-37 3.9 19:08:48 10° SW 19:12:41 47° SSE 19:13:28 41° ESE
Cosmos 1633 Rocket 3.2 19:09:04 10° SSW 19:13:24 75° WNW 19:17:46 10° N
STARLINK-26 3.0 19:10:22 10° WSW 19:13:50 90° SSE 19:14:32 55° ENE
STARLINK-36 3.9 19:10:22 10° SW 19:14:13 46° SSE 19:14:56 41° ESE
STARLINK-29 3.4 19:11:17 10° WNW 19:14:41 61° SSW 19:15:27 45° SSE
Cosmos 44 Rocket 4.0 19:10:30 10° NNW 19:14:54 36° NE 19:16:02 32° ENE
Cosmos 1937 Rocket 4.2 19:10:41 10° NNW 19:15:29 33° NE 19:16:26 31° ENE
STARLINK-68 3.8 19:12:09 10° SW 19:16:02 50° SSE 19:16:45 44° ESE
Cosmos 1666 Rocket 4.2 19:12:57 10° SSW 19:17:22 59° WNW 19:21:50 10° N
STARLINK-63 3.8 19:13:43 10° SW 19:17:37 50° SSE 19:18:14 45° ESE
Cosmos 1933 Rocket 3.6 19:13:40 10° S 19:17:58 53° E 19:22:16 10° NNE
SL-08 RB Rocket 3.9 19:17:47 37° ESE 19:18:59 47° ENE 19:23:17 10° N
STARLINK-35 3.8 19:15:16 10° SW 19:19:09 49° SSE 19:19:41 46° SE
STARLINK-75 3.1 19:15:56 10° WSW 19:19:20 63° SSE 19:19:33 61° SE
CZ-4 R/B 4.1 19:16:57 10° SW 19:20:16 22° W 19:23:35 10° NW
STARLINK-51 3.7 19:16:56 10° SW 19:20:50 50° SSE 19:21:19 47° SE
STARLINK-1023 4.2 19:18:30 10° SW 19:20:27 28° S 19:20:27 28° S
Okean 1 3.9 19:17:39 10° N 19:20:56 38° NE 19:20:56 38° NE
CENTAUR R/B 3.9 19:15:35 10° NW 19:22:10 36° N 19:26:39 22° ENE
STARLINK-30 3.7 19:18:34 10° SW 19:22:29 51° SSE 19:22:53 49° SE
STARLINK 1040 4.3 19:20:56 10° SW 19:22:31 26° SSW 19:22:31 26° SSW
Lacrosse 5 rocket 2.3 19:19:13 10° W 19:23:35 46° N 19:25:18 31° NE
Cosmos 2263 4.3 19:18:21 10° S 19:23:55 51° ESE 19:28:01 18° NE
STARLINK-72 3.7 19:20:12 10° SW 19:24:07 52° SSE 19:24:29 50° SE
STARLINK-22 3.2 19:20:47 10° SW 19:24:05 58° SSE 19:24:05 58° SSE
STARLINK-52 3.3 19:21:31 10° WNW 19:24:53 58° SSW 19:25:12 54° S
Cosmos 2233 Rocket 4.1 19:19:08 10° SSW 19:25:17 79° W 19:31:31 10° N
STARLINK-42 3.1 19:22:21 10° WSW 19:25:21 62° S 19:25:21 62° S
STARLINK-41 3.2 19:22:12 10° WSW 19:25:30 61° SSE 19:25:30 61° SSE
STARLINK-50 3.7 19:21:51 10° SW 19:25:46 53° SSE 19:26:04 52° SE
STARLINK-59 3.6 19:23:34 10° SW 19:27:30 56° SSE 19:27:46 54° SE
Aureole 2 Rocket 4.2 19:25:13 10° SSW 19:25:47 15° SSW 19:25:47 15° SSW
STARLINK-56 3.6 19:25:07 10° SW 19:29:03 55° SSE 19:29:14 55° SE
NOSS 2-3 (C) 4.2 19:25:12 10° SSW 19:29:03 41° SE 19:29:03 41° SE
STARLINK-1007 4.4 19:26:51 10° SW 19:28:42 28° SSW 19:28:42 28° SSW
ATLAS 3B R/B 3.9 19:24:03 10° WNW 19:29:52 30° N 19:33:27 19° NE
STARLINK-1014 4.4 19:27:29 10° SW 19:29:41 29° S 19:29:41 29° S
STARLINK-73 3.6 19:26:47 10° SW 19:30:44 56° SSE 19:30:50 56° SSE
SPOT 3 Rocket 3.5 19:28:41 31° SE 19:31:06 63° ENE 19:36:16 10° N
Cosmos 405 3.9 19:28:05 10° N 19:30:23 35° NNE 19:30:23 35° NNE
STARLINK-38 3.6 19:28:26 10° SW 19:32:23 57° SSE 19:32:26 57° SSE
Resurs 1-3 3.9 19:34:02 45° NE 19:34:02 45° NE 19:37:54 10° N
STARLINK-65 3.6 19:30:03 10° SW 19:34:00 58° SSE 19:34:00 58° SSE
MetOp-A 4.2 19:33:18 41° ESE 19:34:53 56° ENE 19:40:08 10° N
Meteor 1-20 Rocket 4.1 19:30:09 10° S 19:35:29 58° E 19:40:56 10° NNE
STARLINK-61 3.3 19:31:41 10° WSW 19:35:35 79° SSE 19:35:43 77° SE
STARLINK-53 3.6 19:31:46 10° SW 19:35:42 61° SSE 19:35:42 61° SSE
ARGOS Delta rocket 3.5 19:35:43 56° ESE 19:36:23 65° ENE 19:40:47 10° N
Cosmos 1072 Rocket 4.4 19:32:33 10° S 19:38:50 64° E 19:45:06 10° NNE
Cosmos 2242 Rocket 4.0 19:36:49 10° NNW 19:41:19 65° W 19:45:49 10° S
ARGOS 3.1 19:36:21 12° SSE 19:41:26 85° WSW 19:46:55 10° NNW
STARLINK-48 3.4 19:37:43 10° W 19:41:38 79° N 19:41:39 78° N
Resurs 01 Rocket 2.5 19:42:59 35° NNE 19:42:59 35° NNE 19:46:05 10° N
Cosmos 2297 Rocket 3.4 19:40:52 10° NNW 19:45:39 27° NE 19:45:46 27° NE
USA 238 DEB 4.3 19:39:22 10° NW 19:46:06 45° NNE 19:48:20 35° ENE
USA 238 4.3 19:39:28 10° NW 19:46:11 44° NNE 19:48:25 35° ENE
Meteor 2-11 Rocket 4.3 19:42:53 10° S 19:48:55 65° E 19:54:57 10° NNE
STARLINK-58 4.1 19:46:14 10° WSW 19:48:50 45° SW 19:48:50 45° SW
COSMOS 2487 3.4 19:47:54 10° NNW 19:50:19 42° NNW 19:50:19 42° NNW
STARLINK-62 4.1 19:47:55 10° WSW 19:50:28 44° WSW 19:50:28 44° WSW
STARLINK-34 4.2 19:49:31 10° WSW 19:52:00 43° WSW 19:52:00 43° WSW
Cosmos 1513 Rocket 4.3 19:49:10 10° S 19:55:12 75° E 20:01:22 10° NNE
USA 267 4.1 19:57:57 30° SSE 19:57:57 30° SSE 20:02:15 10° SSW
Meteor 1-19 Rocket 4.1 19:50:43 10° N 19:56:38 78° ENE 19:58:13 50° SSE
Cosmos 1470 Rocket 4.4 19:53:11 10° SSW 19:57:24 49° WNW 20:01:42 10° N
Cosmos 1898 Rocket 3.3 19:52:23 10° NNW 19:57:36 80° ENE 19:58:05 72° ESE
NOSS 3-1 (C) 3.5 19:52:45 10° SW 19:58:28 75° NW 20:02:17 27° NE
Cosmos 2227 Rocket 3.3 19:58:43 10° NNW 20:03:09 29° NNE 20:03:09 29° NNE
Cosmos 1891 Rocket 4.4 19:57:36 10° S 20:03:47 86° E 20:10:08 10° N
STARLINK-24 4.5 20:02:45 10° WSW 20:05:34 43° WSW 20:05:34 43° WSW
Meteor 1-25 Rocket 4.2 20:04:07 10° SSW 20:09:50 81° WNW 20:15:31 10° NNE
SJ-6B 3.9 20:09:55 40° WSW 20:10:04 40° W 20:13:39 10° NNW
Meteor 2-4 Rocket 3.7 20:07:06 10° N 20:12:50 69° ENE 20:12:50 69° ENE
Cosmos 1943 Rocket 3.0 20:09:45 10° SW 20:15:10 49° NW 20:20:11 12° NNE
Cosmos 2219 3.8 20:16:34 10° NNW 20:21:15 45° NNE 20:21:15 45° NNE
Cosmos 1464 Rocket 4.3 20:22:08 10° SSW 20:28:28 69° WNW 20:34:52 10° N
H-2A R/B 3.7 20:24:46 10° SSW 20:29:34 33° W 20:34:30 10° NNW
Okean 1-7 4.3 20:27:00 10° NNW 20:30:59 38° W 20:31:01 38° W
Nadezhda 4 Rocket 4.2 20:24:58 10° NNW 20:31:13 71° W 20:33:03 47° SSW
Lacrosse 4 Rocket 3.9 20:30:09 10° WNW 20:33:14 19° NNW 20:34:41 16° N
USA 234 3.1 20:32:59 77° SE 20:33:29 85° SSW 20:40:05 10° WNW
Timation 2 Rocket 4.3 20:27:39 10° NW 20:34:30 73° WSW 20:35:37 61° S
SJ 16-02 2.7 20:32:42 10° NNW 20:35:45 38° WNW 20:35:45 38° WNW
Cosmos 2026 Rocket 4.3 20:32:26 10° N 20:37:19 53° NNE 20:37:19 53° NNE
NOSS 3-2 (C) 4.2 20:33:02 10° NW 20:39:57 52° NNE 20:40:22 52° NE
NOSS 3-2 (A) 4.0 20:33:55 10° NW 20:41:02 64° NE 20:41:23 63° NE
Cosmos 2034 Rocket 4.1 20:44:41 49° SW 20:46:20 69° WNW 20:52:30 10° N
USA 229 DEB 4.3 20:41:22 10° WSW 20:47:52 52° NNW 20:50:33 34° NNE
USA 229 4.3 20:41:28 10° WSW 20:47:57 52° NNW 20:50:37 35° NNE
Cosmos 2369 Rocket 3.5 20:44:42 10° WSW 20:49:59 38° NW 20:53:49 18° NNE
NOSS 3-1 (A) 3.9 20:48:56 10° WSW 20:54:40 58° NW 20:55:17 56° N
Cosmos 2263 Rocket 4.3 20:51:03 10° NNW 20:53:44 17° NNE 20:53:44 17° NNE
Lacrosse 5 rocket 3.7 20:58:53 10° WNW 21:00:57 25° NW 21:00:57 25° NW
CENTAUR R/B 3.3 21:06:47 10° NW 21:13:50 60° NNE 21:13:50 60° NNE
Resurs 01 Rocket 4.1 21:20:33 20° NW 21:20:33 20° NW 21:22:21 10° NW
ATLAS 3B R/B 3.5 21:15:38 10° NW 21:20:42 41° N 21:20:42 41° N
Cosmos 2297 Rocket 3.7 21:24:41 10° NNW 21:27:35 32° NNW 21:27:35 32° NNW
USA 238 DEB 4.4 21:30:30 10° NW 21:35:47 53° WNW 21:35:47 53° WNW
USA 238 4.4 21:30:36 10° NW 21:35:52 53° WNW 21:35:52 53° WNW
Cosmos 2227 Rocket 4.1 21:42:35 10° NW 21:44:58 26° NW 21:44:58 26° NW
